User: anonymous   Login
Location: Ambatotampy
(18.8181°S, 47.6186°E)
Time: 02:49:27
(UTC+00:00)
Language:

GPS 2-15 Rocket1 - Orbit

View from above orbital plane
View from above orbital plane
View from above satellite
View from above satellite

Ground track
Ground track

The orbit data is extracted from the following two-line orbital elements,

1 22109U 92058B   21102.47471328  .00000526  00000-0  22694-4 0  9990
2 22109  19.7835  38.6270 0036761 109.1593 251.2803 14.73659539515561
Epoch (UTC): 12 April 2021 11:23:35
Eccentricity: 0.0036761
inclination: 19.7835°
perigee height: 623 km
apogee height: 675 km
right ascension of ascending node: 38.6270°
argument of perigee: 109.1593°
revolutions per day: 14.73659539
mean anomaly at epoch: 251.2803°
orbit number at epoch: 51556

The dashed part of the orbit path shows where the satellite is in the earth's shadow,  

DLR